TimeEDT,TemperatureF,Dew PointF,Humidity,Sea Level PressureIn,VisibilityMPH,Wind Direction,Wind SpeedMPH,Gust SpeedMPH,PrecipitationIn,Events,Conditions,WindDirDegrees,DateUTC
12:53 AM,46.0,43.0,89,29.58,10.0,Calm,Calm,-,0.00,,Overcast,0,2012-10-20 04:53:00
1:53 AM,45.0,42.1,90,29.59,10.0,Calm,Calm,-,N/A,,Overcast,0,2012-10-20 05:53:00
2:53 AM,46.9,43.0,86,29.60,10.0,NNW,3.5,-,N/A,,Overcast,330,2012-10-20 06:53:00
3:53 AM,46.9,43.0,86,29.62,10.0,NNW,4.6,-,0.02,,Overcast,330,2012-10-20 07:53:00
4:53 AM,46.9,43.0,86,29.62,10.0,NNW,4.6,-,N/A,,Overcast,330,2012-10-20 08:53:00
5:53 AM,46.9,44.1,90,29.64,10.0,Calm,Calm,-,0.00,,Overcast,0,2012-10-20 09:53:00
6:53 AM,48.0,44.1,86,29.65,10.0,Calm,Calm,-,0.01,Rain,Light Rain,0,2012-10-20 10:53:00
7:53 AM,46.9,43.0,86,29.68,7.0,Calm,Calm,-,0.02,Rain,Rain,0,2012-10-20 11:53:00
8:05 AM,46.4,42.8,87,29.67,10.0,Calm,Calm,-,0.01,Rain,Light Rain,0,2012-10-20 12:05:00
8:29 AM,46.4,42.8,87,29.68,10.0,Calm,Calm,-,0.01,,Overcast,0,2012-10-20 12:29:00
8:53 AM,48.0,43.0,83,29.70,10.0,Calm,Calm,-,0.01,,Overcast,0,2012-10-20 12:53:00
9:53 AM,50.0,46.0,86,29.72,10.0,Calm,Calm,-,0.00,,Overcast,0,2012-10-20 13:53:00
10:03 AM,50.0,44.6,82,29.71,10.0,Calm,Calm,-,N/A,,Overcast,0,2012-10-20 14:03:00
10:42 AM,51.8,44.6,76,29.72,10.0,North,4.6,-,N/A,,Overcast,360,2012-10-20 14:42:00
10:53 AM,51.1,44.1,77,29.73,10.0,Calm,Calm,-,N/A,,Overcast,0,2012-10-20 14:53:00
11:51 AM,51.8,46.4,82,29.74,10.0,NNW,3.5,-,0.00,,Overcast,330,2012-10-20 15:51:00
11:53 AM,52.0,46.0,80,29.75,10.0,West,3.5,-,0.00,,Overcast,280,2012-10-20 15:53:00
12:08 PM,53.6,44.6,72,29.75,10.0,NW,5.8,-,N/A,,Overcast,320,2012-10-20 16:08:00
12:53 PM,54.0,45.0,72,29.76,10.0,WNW,9.2,-,N/A,,Overcast,300,2012-10-20 16:53:00
1:14 PM,53.6,44.6,72,29.76,10.0,WNW,9.2,-,N/A,,Overcast,300,2012-10-20 17:14:00
1:25 PM,53.6,46.4,77,29.76,10.0,WNW,10.4,-,N/A,,Overcast,290,2012-10-20 17:25:00
1:33 PM,53.6,44.6,72,29.76,10.0,West,11.5,18.4,N/A,,Overcast,280,2012-10-20 17:33:00
1:53 PM,53.1,45.0,74,29.78,10.0,Variable,6.9,16.1,N/A,,Overcast,0,2012-10-20 17:53:00
2:16 PM,53.6,44.6,72,29.77,10.0,West,10.4,-,N/A,,Overcast,270,2012-10-20 18:16:00
2:53 PM,54.0,46.0,75,29.73,10.0,West,8.1,-,N/A,,Overcast,270,2012-10-20 18:53:00
3:12 PM,53.6,44.6,72,29.78,10.0,West,12.7,19.6,N/A,,Overcast,280,2012-10-20 19:12:00
3:53 PM,54.0,44.1,69,29.74,10.0,West,11.5,19.6,N/A,,Overcast,280,2012-10-20 19:53:00
4:53 PM,54.0,44.1,69,29.76,10.0,WNW,9.2,-,N/A,,Mostly Cloudy,290,2012-10-20 20:53:00
5:11 PM,53.6,42.8,67,29.82,10.0,West,9.2,-,N/A,,Scattered Clouds,280,2012-10-20 21:11:00
5:53 PM,54.0,43.0,66,29.78,10.0,West,4.6,-,N/A,,Mostly Cloudy,270,2012-10-20 21:53:00
6:06 PM,53.6,42.8,67,29.84,10.0,West,6.9,-,N/A,,Scattered Clouds,280,2012-10-20 22:06:00
6:44 PM,50.0,42.8,76,29.85,10.0,West,4.6,-,N/A,,Mostly Cloudy,260,2012-10-20 22:44:00
6:51 PM,50.0,42.8,76,29.85,10.0,West,4.6,-,N/A,,Scattered Clouds,260,2012-10-20 22:51:00
6:53 PM,50.0,42.1,74,29.86,10.0,West,4.6,-,N/A,,Scattered Clouds,260,2012-10-20 22:53:00
7:53 PM,45.0,39.9,82,29.87,10.0,Calm,Calm,-,N/A,,Clear,0,2012-10-20 23:53:00
8:53 PM,44.1,39.9,85,29.89,10.0,Calm,Calm,-,N/A,,Clear,0,2012-10-21 00:53:00
9:53 PM,41.0,37.9,89,29.91,10.0,Calm,Calm,-,N/A,,Clear,0,2012-10-21 01:53:00
10:13 PM,39.2,37.4,93,29.90,2.0,Calm,Calm,-,N/A,,Clear,0,2012-10-21 02:13:00
10:22 PM,39.2,37.4,93,29.90,5.0,Calm,Calm,-,N/A,,Clear,0,2012-10-21 02:22:00
10:24 PM,39.2,37.4,93,29.90,1.8,Calm,Calm,-,N/A,,Partly Cloudy,0,2012-10-21 02:24:00
10:31 PM,39.2,37.4,93,29.90,1.2,Calm,Calm,-,N/A,,Partly Cloudy,0,2012-10-21 02:31:00
10:34 PM,39.2,37.4,93,29.90,2.0,Calm,Calm,-,N/A,,Partly Cloudy,0,2012-10-21 02:34:00
10:41 PM,39.2,35.6,87,29.90,10.0,Calm,Calm,-,N/A,,Partly Cloudy,0,2012-10-21 02:41:00
10:53 PM,41.0,37.0,86,29.92,10.0,Calm,Calm,-,N/A,,Clear,0,2012-10-21 02:53:00
11:53 PM,39.0,36.0,89,29.92,6.0,Calm,Calm,-,N/A,,Clear,0,2012-10-21 03:53:00